| time (UTC) | temp F | wind direction | speed knots | gust knots | rain 1hr in | rain 24hr in | rain mn in | humidity % | barometer mb |
| 20260903200504 | 95 | 121 | 1.7 | 2.6 | 0.00 | 0.00 | 0.00 | 51 | 1016.0 |
| 20260903200004 | 95 | 132 | 1.7 | 2.6 | 0.00 | 0.00 | 0.00 | 51 | 1016.0 |
| 20260903195005 | 95 | 68 | 0.9 | 2.6 | 0.00 | 0.00 | 0.00 | 54 | 1016.0 |
| 20260903194506 | 94 | 123 | 1.7 | 2.6 | 0.00 | 0.00 | 0.00 | 56 | 1016.0 |
| 20260903194005 | 94 | 106 | 1.7 | 2.6 | 0.00 | 0.00 | 0.00 | 58 | 1016.0 |
| 20260903193505 | 95 | 111 | 1.7 | 2.6 | 0.00 | 0.00 | 0.00 | 55 | 1016.0 |
| 20260903193005 | 95 | 4 | 1.7 | 4.3 | 0.00 | 0.00 | 0.00 | 55 | 1016.2 |
| 20260903192005 | 97 | 19 | 0.9 | 2.6 | 0.00 | 0.00 | 0.00 | 53 | 1016.4 |
| 20260903190506 | 96 | 128 | 0.9 | 4.3 | 0.00 | 0.00 | 0.00 | 54 | 1016.4 |
| 20260903190004 | 96 | 147 | 1.7 | 4.3 | 0.00 | 0.00 | 0.00 | 53 | 1016.4 |
| 20260903185505 | 96 | 116 | 0.9 | 2.6 | 0.00 | 0.00 | 0.00 | 51 | 1016.4 |
| 20260903184004 | 95 | 116 | 1.7 | 4.3 | 0.00 | 0.00 | 0.00 | 55 | 1016.8 |
| 20260903183505 | 96 | 167 | 0.9 | 2.6 | 0.00 | 0.00 | 0.00 | 52 | 1016.8 |
| 20260903183004 | 96 | 132 | 1.7 | 4.3 | 0.00 | 0.00 | 0.00 | 51 | 1016.8 |
| 20260903182505 | 95 | 168 | 2.6 | 5.2 | 0.00 | 0.00 | 0.00 | 55 | 1016.8 |
| 20260903181505 | 95 | 11 | 0.9 | 1.7 | 0.00 | 0.00 | 0.00 | 52 | 1016.8 |
| 20260903181006 | 96 | 99 | 0.9 | 4.3 | 0.00 | 0.00 | 0.00 | 55 | 1016.8 |
| 20260903180006 | 95 | 63 | 1.7 | 6.1 | 0.00 | 0.00 | 0.00 | 54 | 1017.1 |
| 20260903175505 | 96 | 123 | 1.7 | 6.1 | 0.00 | 0.00 | 0.00 | 52 | 1017.1 |
| 20260903174504 | 94 | 97 | 0.9 | 2.6 | 0.00 | 0.00 | 0.00 | 56 | 1017.1 |
| 20260903173504 | 95 | 142 | 1.7 | 4.3 | 0.00 | 0.00 | 0.00 | 54 | 1017.8 |
| 20260903173004 | 94 | 128 | 1.7 | 6.1 | 0.00 | 0.00 | 0.00 | 54 | 1017.8 |
| 20260903172505 | 94 | 348 | 0.9 | 4.3 | 0.00 | 0.00 | 0.00 | 54 | 1017.8 |
| 20260903172005 | 93 | 91 | 1.7 | 2.6 | 0.00 | 0.00 | 0.00 | 56 | 1017.8 |
| 20260903171005 | 93 | 28 | 1.7 | 6.1 | 0.00 | 0.00 | 0.00 | 55 | 1017.8 |
| 20260903170505 | 95 | 13 | 1.7 | 6.1 | 0.00 | 0.00 | 0.00 | 54 | 1017.8 |
| 20260903170005 | 95 | 12 | 0.9 | 2.6 | 0.00 | 0.00 | 0.00 | 54 | 1017.8 |
| 20260903165504 | 95 | 334 | 0.9 | 2.6 | 0.00 | 0.00 | 0.00 | 56 | 1017.8 |
| 20260903164505 | 93 | 18 | 2.6 | 4.3 | 0.00 | 0.00 | 0.00 | 57 | 1017.8 |
| 20260903164006 | 94 | 355 | 1.7 | 4.3 | 0.00 | 0.00 | 0.00 | 54 | 1017.9 |
| 20260903163504 | 94 | 5 | 0.9 | 2.6 | 0.00 | 0.00 | 0.00 | 55 | 1017.9 |
| 20260903163005 | 94 | 3 | 0.9 | 2.6 | 0.00 | 0.00 | 0.00 | 55 | 1018.2 |
| 20260903162505 | 94 | 96 | 0.9 | 2.6 | 0.00 | 0.00 | 0.00 | 56 | 1018.2 |
| 20260903160505 | 92 | 17 | 0.9 | 2.6 | 0.00 | 0.00 | 0.00 | 59 | 1018.2 |
| 20260903160006 | 92 | 115 | 1.7 | 2.6 | 0.00 | 0.00 | 0.00 | 58 | 1018.2 |
| 20260903155505 | 94 | 315 | 0.9 | 1.7 | 0.00 | 0.00 | 0.00 | 60 | 1018.2 |
| 20260903155005 | 92 | 315 | 0.0 | 2.6 | 0.00 | 0.00 | 0.00 | 60 | 1018.2 |
| 20260903154505 | 92 | 321 | 0.0 | 1.7 | 0.00 | 0.00 | 0.00 | 59 | 1018.2 |
| 20260903154004 | 91 | 319 | 1.7 | 2.6 | 0.00 | 0.00 | 0.00 | 61 | 1018.2 |
| 20260903153505 | 91 | 260 | 1.7 | 2.6 | 0.00 | 0.00 | 0.00 | 61 | 1018.2 |
| 20260903153005 | 90 | 331 | 1.7 | 2.6 | 0.00 | 0.00 | 0.00 | 61 | 1018.0 |
| 20260903152504 | 90 | 348 | 0.9 | 2.6 | 0.00 | 0.00 | 0.00 | 63 | 1018.0 |
| 20260903152005 | 90 | 320 | 1.7 | 2.6 | 0.00 | 0.00 | 0.00 | 62 | 1018.0 |
| 20260903151505 | 90 | 355 | 1.7 | 2.6 | 0.00 | 0.00 | 0.00 | 62 | 1018.0 |
| 20260903150505 | 89 | 10 | 1.7 | 2.6 | 0.00 | 0.00 | 0.00 | 64 | 1018.0 |
| 20260903150005 | 89 | 10 | 0.9 | 1.7 | 0.00 | 0.00 | 0.00 | 66 | 1017.9 |
| 20260903145505 | 89 | 10 | 0.9 | 1.7 | 0.00 | 0.00 | 0.00 | 65 | 1017.9 |
| 20260903145005 | 89 | 10 | 0.9 | 1.7 | 0.00 | 0.00 | 0.00 | 67 | 1017.9 |
| 20260903144505 | 88 | 285 | 0.9 | 2.6 | 0.00 | 0.00 | 0.00 | 69 | 1017.9 |
| 20260903144006 | 87 | 341 | 0.9 | 2.6 | 0.00 | 0.00 | 0.00 | 68 | 1018.0 |
| 20260903143005 | 87 | 15 | 1.7 | 2.6 | 0.00 | 0.00 | 0.00 | 68 | 1018.0 |
| 20260903142505 | 87 | 173 | 0.0 | 1.7 | 0.00 | 0.00 | 0.00 | 71 | 1018.0 |
| 20260903142006 | 86 | 173 | 0.9 | 2.6 | 0.00 | 0.00 | 0.00 | 72 | 1018.0 |
| 20260903141505 | 86 | 173 | 0.9 | 2.6 | 0.00 | 0.00 | 0.00 | 74 | 1018.0 |
| 20260903141006 | 85 | 173 | 0.9 | 1.7 | 0.00 | 0.00 | 0.00 | 73 | 1018.0 |
| 20260903140505 | 85 | 173 | 0.9 | 1.7 | 0.00 | 0.00 | 0.00 | 76 | 1018.0 |
| 20260903140005 | 85 | 173 | 0.0 | 0.9 | 0.00 | 0.00 | 0.00 | 78 | 1018.2 |
| 20260903135005 | 82 | 173 | 0.0 | 0.9 | 0.00 | 0.00 | 0.00 | 84 | 1018.2 |
| 20260903134505 | 81 | 173 | 0.0 | 0.9 | 0.00 | 0.00 | 0.00 | 87 | 1018.2 |
| 20260903134005 | 79 | 173 | 0.0 | 1.7 | 0.00 | 0.00 | 0.00 | 89 | 1018.2 |
| 20260903133505 | 77 | 173 | 0.0 | 1.7 | 0.00 | 0.00 | 0.00 | 89 | 1018.2 |
| 20260903133006 | 76 | 173 | 0.0 | 0.0 | 0.00 | 0.00 | 0.00 | 89 | 1018.2 |
| 20260903132505 | 76 | 173 | 0.0 | 0.0 | 0.00 | 0.00 | 0.00 | 89 | 1018.2 |
| 20260903132005 | 76 | 173 | 0.0 | 0.0 | 0.00 | 0.00 | 0.00 | 89 | 1018.2 |
| 20260903131505 | 76 | 173 | 0.0 | 0.0 | 0.00 | 0.00 | 0.00 | 89 | 1018.3 |
| 20260903131005 | 76 | 173 | 0.0 | 0.0 | 0.00 | 0.00 | 0.00 | 89 | 1018.3 |
| 20260903130005 | 75 | 173 | 0.0 | 0.0 | 0.00 | 0.00 | 0.00 | 89 | 1018.1 |
| 20260903125505 | 75 | 173 | 0.0 | 0.0 | 0.00 | 0.00 | 0.00 | 89 | 1018.1 |
| 20260903125005 | 75 | 173 | 0.0 | 0.0 | 0.00 | 0.00 | 0.00 | 89 | 1018.1 |
| 20260903124505 | 74 | 173 | 0.0 | 0.0 | 0.00 | 0.00 | 0.00 | 89 | 1018.0 |
| 20260903124005 | 73 | 173 | 0.0 | 0.0 | 0.00 | 0.00 | 0.00 | 89 | 1018.0 |
| 20260903123504 | 73 | 173 | 0.0 | 0.0 | 0.00 | 0.00 | 0.00 | 89 | 1018.0 |
| 20260903123005 | 73 | 173 | 0.0 | 0.0 | 0.00 | 0.00 | 0.00 | 89 | 1018.0 |
| 20260903122505 | 73 | 173 | 0.0 | 0.0 | 0.00 | 0.00 | 0.00 | 89 | 1018.0 |
| 20260903122005 | 72 | 173 | 0.0 | 0.0 | 0.00 | 0.00 | 0.00 | 89 | 1017.9 |
| 20260903121505 | 72 | 173 | 0.0 | 0.0 | 0.00 | 0.00 | 0.00 | 90 | 1017.9 |
| 20260903121005 | 72 | 173 | 0.0 | 0.0 | 0.00 | 0.00 | 0.00 | 90 | 1017.9 |
| 20260903120505 | 72 | 173 | 0.0 | 0.0 | 0.00 | 0.00 | 0.00 | 90 | 1017.9 |
| 20260903120005 | 72 | 173 | 0.0 | 0.0 | 0.00 | 0.00 | 0.00 | 90 | 1017.9 |
| 20260903115506 | 72 | 173 | 0.0 | 0.0 | 0.00 | 0.00 | 0.00 | 89 | 1017.9 |
| 20260903115006 | 72 | 173 | 0.0 | 0.0 | 0.00 | 0.00 | 0.00 | 89 | 1017.7 |
| 20260903114504 | 72 | 173 | 0.0 | 0.0 | 0.00 | 0.00 | 0.00 | 89 | 1017.7 |
| 20260903114005 | 72 | 173 | 0.0 | 0.0 | 0.00 | 0.00 | 0.00 | 90 | 1017.7 |
| 20260903113505 | 72 | 173 | 0.0 | 0.0 | 0.00 | 0.00 | 0.00 | 90 | 1017.7 |
| 20260903112505 | 72 | 173 | 0.0 | 0.0 | 0.00 | 0.00 | 0.00 | 90 | 1017.3 |
| 20260903112004 | 72 | 173 | 0.0 | 0.0 | 0.00 | 0.00 | 0.00 | 90 | 1017.3 |
| 20260903111006 | 72 | 173 | 0.0 | 0.0 | 0.00 | 0.00 | 0.00 | 90 | 1017.3 |
| 20260903110506 | 72 | 173 | 0.0 | 0.0 | 0.00 | 0.00 | 0.00 | 89 | 1017.3 |
| 20260903110005 | 72 | 173 | 0.0 | 0.0 | 0.00 | 0.00 | 0.00 | 89 | 1016.9 |
| 20260903104504 | 72 | 173 | 0.0 | 0.0 | 0.00 | 0.00 | 0.00 | 89 | 1016.9 |
| 20260903104006 | 72 | 173 | 0.0 | 0.0 | 0.00 | 0.00 | 0.00 | 89 | 1016.9 |
| 20260903103505 | 73 | 173 | 0.0 | 0.0 | 0.00 | 0.00 | 0.00 | 89 | 1016.9 |
| 20260903103005 | 73 | 173 | 0.0 | 0.0 | 0.00 | 0.00 | 0.00 | 89 | 1016.9 |
| 20260903102505 | 73 | 173 | 0.0 | 0.0 | 0.00 | 0.00 | 0.00 | 89 | 1016.9 |
| 20260903101505 | 73 | 173 | 0.0 | 0.0 | 0.00 | 0.00 | 0.00 | 90 | 1016.8 |
| 20260903100005 | 73 | 173 | 0.0 | 0.9 | 0.00 | 0.00 | 0.00 | 89 | 1017.0 |
| 20260903095505 | 73 | 173 | 0.0 | 0.9 | 0.00 | 0.00 | 0.00 | 89 | 1017.0 |
| 20260903095005 | 73 | 173 | 0.0 | 0.0 | 0.00 | 0.00 | 0.00 | 89 | 1017.0 |
| 20260903094504 | 73 | 173 | 0.0 | 0.0 | 0.00 | 0.00 | 0.00 | 89 | 1017.0 |
| 20260903093505 | 73 | 173 | 0.0 | 0.0 | 0.00 | 0.00 | 0.00 | 89 | 1017.0 |
| 20260903093005 | 73 | 173 | 0.0 | 0.0 | 0.00 | 0.00 | 0.00 | 89 | 1017.1 |
| 20260903092005 | 73 | 173 | 0.0 | 0.0 | 0.00 | 0.00 | 0.00 | 89 | 1017.1 |
| 20260903090505 | 73 | 173 | 0.0 | 0.0 | 0.00 | 0.00 | 0.00 | 89 | 1017.0 |
| 20260903090006 | 73 | 173 | 0.0 | 0.0 | 0.00 | 0.00 | 0.00 | 89 | 1017.1 |
| 20260903085505 | 73 | 173 | 0.0 | 0.0 | 0.00 | 0.00 | 0.00 | 89 | 1017.1 |
| 20260903085005 | 73 | 173 | 0.0 | 0.0 | 0.00 | 0.00 | 0.00 | 89 | 1017.0 |
| 20260903084504 | 74 | 173 | 0.0 | 0.0 | 0.00 | 0.00 | 0.00 | 89 | 1017.1 |
| 20260903084005 | 74 | 173 | 0.0 | 0.0 | 0.00 | 0.00 | 0.00 | 89 | 1017.1 |
| 20260903083504 | 74 | 173 | 0.0 | 0.0 | 0.00 | 0.00 | 0.00 | 89 | 1017.1 |
| 20260903083005 | 74 | 173 | 0.0 | 0.0 | 0.00 | 0.00 | 0.00 | 89 | 1016.9 |
| 20260903082505 | 74 | 173 | 0.0 | 0.0 | 0.00 | 0.00 | 0.00 | 89 | 1016.9 |
| 20260903082005 | 74 | 173 | 0.0 | 0.0 | 0.00 | 0.00 | 0.00 | 89 | 1016.9 |
| 20260903081006 | 74 | 173 | 0.0 | 0.0 | 0.00 | 0.00 | 0.00 | 89 | 1016.9 |
| 20260903080505 | 74 | 173 | 0.0 | 0.0 | 0.00 | 0.00 | 0.00 | 89 | 1016.9 |
| 20260903080004 | 74 | 173 | 0.0 | 0.0 | 0.00 | 0.00 | 0.00 | 89 | 1016.9 |
| 20260903075506 | 74 | 173 | 0.0 | 0.0 | 0.00 | 0.00 | 0.00 | 89 | 1016.9 |
| 20260903075005 | 74 | 173 | 0.0 | 0.0 | 0.00 | 0.00 | 0.00 | 89 | 1016.9 |
| 20260903074505 | 74 | 173 | 0.0 | 0.0 | 0.00 | 0.00 | 0.00 | 89 | 1016.9 |
| 20260903073506 | 74 | 173 | 0.0 | 0.0 | 0.00 | 0.00 | 0.00 | 89 | 1016.9 |
| 20260903073005 | 74 | 173 | 0.0 | 0.0 | 0.00 | 0.00 | 0.00 | 89 | 1016.9 |
| 20260903072505 | 74 | 173 | 0.0 | 0.0 | 0.00 | 0.00 | 0.00 | 89 | 1016.9 |
| 20260903072005 | 74 | 173 | 0.0 | 0.0 | 0.00 | 0.00 | 0.00 | 89 | 1016.9 |
| 20260903071504 | 75 | 173 | 0.0 | 0.0 | 0.00 | 0.00 | 0.00 | 89 | 1016.9 |
| 20260903071005 | 75 | 173 | 0.0 | 0.0 | 0.00 | 0.00 | 0.00 | 89 | 1016.9 |
| 20260903070505 | 75 | 173 | 0.0 | 0.0 | 0.00 | 0.00 | 0.00 | 89 | 1016.9 |
| 20260903070006 | 75 | 173 | 0.0 | 0.0 | 0.00 | 0.00 | 0.00 | 89 | 1016.9 |
| 20260903065505 | 75 | 173 | 0.0 | 0.0 | 0.00 | 0.00 | 0.00 | 89 | 1016.9 |
| 20260903065005 | 75 | 173 | 0.0 | 0.0 | 0.00 | 0.00 | 0.00 | 89 | 1016.8 |
| 20260903064505 | 75 | 173 | 0.0 | 0.0 | 0.00 | 0.00 | 0.00 | 89 | 1016.8 |
| 20260903064006 | 75 | 173 | 0.0 | 0.9 | 0.00 | 0.00 | 0.00 | 88 | 1016.8 |
| 20260903063505 | 75 | 173 | 0.0 | 0.0 | 0.00 | 0.00 | 0.00 | 88 | 1016.8 |
| 20260903063005 | 75 | 173 | 0.0 | 0.0 | 0.00 | 0.00 | 0.00 | 88 | 1016.8 |
| 20260903062504 | 75 | 173 | 0.0 | 0.0 | 0.00 | 0.00 | 0.00 | 88 | 1016.8 |
| 20260903062006 | 75 | 173 | 0.0 | 0.0 | 0.00 | 0.00 | 0.00 | 88 | 1016.9 |
| 20260903061505 | 76 | 173 | 0.0 | 0.0 | 0.00 | 0.00 | 0.00 | 88 | 1017.0 |
| 20260903061005 | 76 | 173 | 0.0 | 0.0 | 0.00 | 0.00 | 0.00 | 88 | 1017.0 |
| 20260903060505 | 76 | 173 | 0.0 | 0.0 | 0.00 | 0.00 | 0.00 | 88 | 1017.0 |
| 20260903060005 | 76 | 173 | 0.0 | 0.0 | 0.00 | 0.00 | 0.00 | 88 | 1016.9 |
| 20260903055505 | 76 | 173 | 0.0 | 0.0 | 0.00 | 0.00 | 0.00 | 88 | 1016.9 |
| 20260903054505 | 76 | 173 | 0.0 | 0.0 | 0.00 | 0.00 | 0.00 | 88 | 1016.9 |
| 20260903054005 | 76 | 173 | 0.0 | 0.0 | 0.00 | 0.00 | 0.00 | 88 | 1017.1 |
| 20260903053505 | 76 | 173 | 0.0 | 0.0 | 0.00 | 0.00 | 0.00 | 88 | 1017.1 |
| 20260903053005 | 76 | 173 | 0.0 | 0.0 | 0.00 | 0.00 | 0.00 | 88 | 1017.2 |
| 20260903052505 | 76 | 173 | 0.0 | 0.0 | 0.00 | 0.00 | 0.00 | 88 | 1017.2 |
| 20260903052005 | 76 | 173 | 0.0 | 0.0 | 0.00 | 0.00 | 0.00 | 88 | 1017.2 |
| 20260903051505 | 77 | 173 | 0.0 | 0.0 | 0.00 | 0.00 | 0.00 | 88 | 1017.3 |
| 20260903050505 | 77 | 173 | 0.0 | 0.0 | 0.00 | 0.00 | 0.00 | 88 | 1017.3 |
| 20260903050005 | 77 | 173 | 0.0 | 0.0 | 0.00 | 0.00 | 0.00 | 87 | 1017.3 |
| 20260903045505 | 77 | 173 | 0.0 | 0.0 | 0.00 | 0.00 | 0.00 | 87 | 1017.3 |
| 20260903045005 | 77 | 173 | 0.0 | 0.0 | 0.00 | 0.00 | 0.00 | 87 | 1017.3 |
| 20260903044504 | 77 | 173 | 0.0 | 0.0 | 0.00 | 0.00 | 0.00 | 87 | 1017.3 |
| 20260903044005 | 77 | 173 | 0.0 | 0.0 | 0.00 | 0.00 | 0.00 | 87 | 1017.3 |
| 20260903043505 | 77 | 173 | 0.0 | 0.0 | 0.00 | 0.00 | 0.00 | 87 | 1017.3 |
| 20260903043005 | 78 | 173 | 0.0 | 0.9 | 0.00 | 0.00 | 0.00 | 87 | 1017.3 |
| 20260903041505 | 78 | 173 | 0.0 | 0.0 | 0.00 | 0.00 | 0.00 | 87 | 1017.3 |
| 20260903041005 | 78 | 173 | 0.0 | 0.0 | 0.00 | 0.00 | 0.00 | 86 | 1017.4 |
| 20260903040505 | 78 | 173 | 0.0 | 0.0 | 0.00 | 0.00 | 0.00 | 86 | 1017.4 |
| 20260903040004 | 78 | 173 | 0.0 | 0.0 | 0.00 | 0.00 | 0.00 | 86 | 1017.3 |
| 20260903035505 | 78 | 173 | 0.0 | 0.0 | 0.00 | 0.00 | 0.00 | 86 | 1017.3 |
| 20260903035005 | 78 | 173 | 0.0 | 0.0 | 0.00 | 0.00 | 0.00 | 86 | 1017.3 |
| 20260903034504 | 78 | 173 | 0.0 | 0.0 | 0.00 | 0.00 | 0.00 | 86 | 1017.3 |
| 20260903033005 | 79 | 173 | 0.0 | 0.0 | 0.00 | 0.00 | 0.00 | 86 | 1017.3 |
| 20260903032506 | 79 | 173 | 0.0 | 0.9 | 0.00 | 0.00 | 0.00 | 85 | 1017.3 |
| 20260903032004 | 79 | 173 | 0.9 | 2.6 | 0.00 | 0.00 | 0.00 | 85 | 1017.3 |
| 20260903031506 | 79 | 224 | 0.0 | 0.0 | 0.00 | 0.00 | 0.00 | 85 | 1017.3 |
| 20260903031006 | 79 | 224 | 0.0 | 0.0 | 0.00 | 0.00 | 0.00 | 85 | 1017.4 |
| 20260903030506 | 79 | 224 | 0.0 | 0.0 | 0.00 | 0.00 | 0.00 | 84 | 1017.4 |
| 20260903025504 | 80 | 224 | 0.0 | 0.0 | 0.00 | 0.00 | 0.00 | 84 | 1017.4 |
| 20260903025005 | 80 | 224 | 0.0 | 0.0 | 0.00 | 0.00 | 0.00 | 84 | 1017.4 |
| 20260903024505 | 80 | 224 | 0.0 | 0.0 | 0.00 | 0.00 | 0.00 | 84 | 1017.4 |
| 20260903024005 | 80 | 224 | 0.0 | 0.0 | 0.00 | 0.00 | 0.00 | 84 | 1017.4 |
| 20260903023505 | 81 | 224 | 0.0 | 1.7 | 0.00 | 0.00 | 0.00 | 84 | 1017.4 |
| 20260903023004 | 81 | 224 | 0.9 | 1.7 | 0.00 | 0.00 | 0.00 | 83 | 1017.4 |
| 20260903022505 | 81 | 224 | 0.0 | 1.7 | 0.00 | 0.00 | 0.00 | 83 | 1017.4 |
| 20260903022005 | 81 | 110 | 0.0 | 1.7 | 0.00 | 0.00 | 0.00 | 82 | 1017.3 |
| 20260903021505 | 81 | 107 | 0.0 | 0.0 | 0.00 | 0.00 | 0.00 | 82 | 1017.3 |
| 20260903021006 | 82 | 107 | 0.0 | 0.0 | 0.00 | 0.00 | 0.00 | 82 | 1017.3 |
| 20260903020505 | 82 | 107 | 0.0 | 0.0 | 0.00 | 0.00 | 0.00 | 82 | 1017.3 |
| 20260903020004 | 82 | 107 | 0.0 | 0.0 | 0.00 | 0.00 | 0.00 | 81 | 1017.3 |
| 20260903015505 | 82 | 107 | 0.0 | 0.0 | 0.00 | 0.00 | 0.00 | 81 | 1017.3 |
| 20260903015005 | 82 | 107 | 0.0 | 0.0 | 0.00 | 0.00 | 0.00 | 81 | 1016.9 |
| 20260903014505 | 83 | 107 | 0.0 | 0.9 | 0.00 | 0.00 | 0.00 | 81 | 1016.9 |
| 20260903014005 | 83 | 107 | 0.0 | 0.0 | 0.00 | 0.00 | 0.00 | 80 | 1016.9 |
| 20260903013505 | 83 | 107 | 0.0 | 0.0 | 0.00 | 0.00 | 0.00 | 80 | 1016.9 |
| 20260903013004 | 83 | 107 | 0.0 | 0.0 | 0.00 | 0.00 | 0.00 | 80 | 1016.8 |
| 20260903012005 | 84 | 107 | 0.0 | 0.0 | 0.00 | 0.00 | 0.00 | 79 | 1016.6 |
| 20260903011506 | 84 | 107 | 0.0 | 0.0 | 0.00 | 0.00 | 0.00 | 78 | 1016.6 |
| 20260903011006 | 85 | 107 | 0.0 | 0.0 | 0.00 | 0.00 | 0.00 | 78 | 1016.6 |
| 20260903010504 | 85 | 107 | 0.0 | 0.0 | 0.00 | 0.00 | 0.00 | 77 | 1016.6 |
| 20260903005505 | 86 | 107 | 0.0 | 0.0 | 0.00 | 0.00 | 0.00 | 76 | 1016.4 |
| 20260903004505 | 86 | 107 | 0.0 | 0.0 | 0.00 | 0.00 | 0.00 | 75 | 1016.4 |
| 20260903004005 | 87 | 107 | 0.0 | 0.0 | 0.00 | 0.00 | 0.00 | 74 | 1016.3 |
| 20260903003505 | 87 | 107 | 0.0 | 0.0 | 0.00 | 0.00 | 0.00 | 74 | 1016.3 |
| 20260903003006 | 87 | 107 | 0.0 | 0.0 | 0.00 | 0.00 | 0.00 | 73 | 1016.3 |
| 20260903002505 | 88 | 107 | 0.0 | 0.0 | 0.00 | 0.00 | 0.00 | 73 | 1016.3 |
| 20260903002006 | 88 | 107 | 0.0 | 0.9 | 0.00 | 0.00 | 0.00 | 72 | 1016.3 |
| 20260903001505 | 89 | 107 | 0.0 | 0.0 | 0.00 | 0.00 | 0.00 | 72 | 1016.3 |
| 20260903001005 | 89 | 107 | 0.0 | 0.0 | 0.00 | 0.00 | 0.00 | 72 | 1016.3 |
| 20260903000505 | 90 | 107 | 0.0 | 0.0 | 0.00 | 0.00 | 0.00 | 71 | 1016.3 |
| 20260903000005 | 90 | 107 | 0.0 | 0.0 | 0.00 | 0.00 | 0.00 | 70 | 1016.2 |
| 20260902235504 | 91 | 107 | 0.0 | 0.0 | 0.00 | 0.00 | 0.00 | 69 | 1016.2 |
| 20260902235005 | 91 | 107 | 0.0 | 0.0 | 0.00 | 0.00 | 0.00 | 68 | 1016.3 |
| 20260902234506 | 92 | 107 | 0.0 | 0.0 | 0.00 | 0.00 | 0.00 | 67 | 1016.3 |
| 20260902234005 | 92 | 107 | 0.0 | 0.0 | 0.00 | 0.00 | 0.00 | 66 | 1016.3 |
| 20260902233506 | 92 | 107 | 0.0 | 0.0 | 0.00 | 0.00 | 0.00 | 65 | 1016.3 |
| 20260902233004 | 93 | 107 | 0.0 | 0.9 | 0.00 | 0.00 | 0.00 | 64 | 1016.3 |
| 20260902232505 | 93 | 107 | 0.0 | 0.0 | 0.00 | 0.00 | 0.00 | 62 | 1016.3 |
| 20260902232006 | 93 | 107 | 0.0 | 0.0 | 0.00 | 0.00 | 0.00 | 57 | 1016.3 |
| 20260902231505 | 93 | 107 | 0.0 | 0.0 | 0.00 | 0.00 | 0.00 | 57 | 1016.3 |
| 20260902231005 | 93 | 107 | 0.0 | 0.0 | 0.00 | 0.00 | 0.00 | 58 | 1016.3 |
| 20260902230506 | 93 | 107 | 0.0 | 0.0 | 0.00 | 0.00 | 0.00 | 55 | 1016.3 |
| 20260902225505 | 94 | 107 | 0.0 | 1.7 | 0.00 | 0.00 | 0.00 | 52 | 1016.4 |
| 20260902225005 | 94 | 107 | 0.9 | 2.6 | 0.00 | 0.00 | 0.00 | 52 | 1016.3 |
| 20260902224006 | 94 | 106 | 0.9 | 2.6 | 0.00 | 0.00 | 0.00 | 51 | 1016.3 |
| 20260902223505 | 94 | 101 | 0.0 | 0.9 | 0.00 | 0.00 | 0.00 | 51 | 1016.3 |
| 20260902223006 | 94 | 101 | 0.0 | 2.6 | 0.00 | 0.00 | 0.00 | 51 | 1016.3 |
| 20260902222504 | 94 | 139 | 0.0 | 0.9 | 0.00 | 0.00 | 0.00 | 50 | 1016.3 |
| 20260902222005 | 95 | 139 | 0.0 | 1.7 | 0.00 | 0.00 | 0.00 | 50 | 1016.3 |
| 20260902221505 | 95 | 139 | 0.0 | 0.9 | 0.00 | 0.00 | 0.00 | 50 | 1016.3 |
| 20260902220505 | 95 | 139 | 0.9 | 1.7 | 0.00 | 0.00 | 0.00 | 49 | 1016.3 |
| 20260902220004 | 95 | 147 | 0.0 | 2.6 | 0.00 | 0.00 | 0.00 | 49 | 1016.5 |
| 20260902214504 | 95 | 105 | 0.9 | 1.7 | 0.00 | 0.00 | 0.00 | 49 | 1016.6 |
| 20260902213005 | 95 | 21 | 0.9 | 2.6 | 0.00 | 0.00 | 0.00 | 48 | 1016.8 |
| 20260902212005 | 95 | 123 | 0.9 | 2.6 | 0.00 | 0.00 | 0.00 | 48 | 1016.8 |
| 20260902211006 | 96 | 93 | 0.9 | 4.3 | 0.00 | 0.00 | 0.00 | 48 | 1016.8 |
| 20260902210505 | 95 | 84 | 0.9 | 2.6 | 0.00 | 0.00 | 0.00 | 49 | 1016.8 |
| 20260902205505 | 95 | 196 | 1.7 | 4.3 | 0.00 | 0.00 | 0.00 | 48 | 1016.9 |
| 20260902205006 | 95 | 129 | 0.0 | 0.9 | 0.00 | 0.00 | 0.00 | 49 | 1016.9 |
| 20260902204505 | 95 | 129 | 0.9 | 2.6 | 0.00 | 0.00 | 0.00 | 48 | 1016.9 |
| 20260902204005 | 95 | 99 | 0.9 | 2.6 | 0.00 | 0.00 | 0.00 | 50 | 1016.9 |
| 20260902203505 | 95 | 119 | 0.9 | 1.7 | 0.00 | 0.00 | 0.00 | 49 | 1016.9 |
| 20260902203005 | 95 | 90 | 0.9 | 1.7 | 0.00 | 0.00 | 0.00 | 48 | 1017.1 |
| 20260902202505 | 95 | 3 | 0.9 | 2.6 | 0.00 | 0.00 | 0.00 | 48 | 1017.1 |
| 20260902202005 | 95 | 67 | 0.9 | 1.7 | 0.00 | 0.00 | 0.00 | 48 | 1017.1 |
| 20260902201504 | 96 | 106 | 1.7 | 4.3 | 0.00 | 0.00 | 0.00 | 47 | 1017.4 |
| 20260902201004 | 95 | 108 | 2.6 | 6.1 | 0.00 | 0.00 | 0.00 | 48 | 1017.4 |